Location: Sternwarte_Laufen
(47.9344°N, 12.9346°E)
Time: 00:09:05
(UTC+02:00)

OTV 5 (USA 277) - Visible Passes

Search period start: 24 August 2019 00:00
Search period end: 03 September 2019 00:00
Orbit: 305 x 329 km, 54.5° (Epoch: 20 August)

Date Brightness Start Highest point End Pass type
(mag) Time Alt. Az. Time Alt. Az. Time Alt. Az.
24 Aug ? 21:30:25 10° SSW 21:32:58 39° SE 21:33:12 38° SE visible
25 Aug ? 21:44:46 10° WSW 21:47:29 84° NNW 21:48:20 38° NE visible
26 Aug ? 21:59:30 10° W 22:02:06 41° NNW 22:02:59 29° NNE visible
27 Aug ? 20:39:38 10° SW 20:42:19 62° SE 20:44:59 10° ENE visible
27 Aug ? 22:14:27 10° WNW 22:16:48 26° NNW 22:17:20 24° N visible
28 Aug ? 20:54:12 10° WSW 20:56:52 57° NNW 20:59:33 10° NE visible
28 Aug ? 22:29:27 10° WNW 22:31:29 20° NNW 22:31:29 20° NNW visible
29 Aug ? 21:09:04 10° W 21:11:32 32° NNW 21:14:01 10° NE visible
29 Aug ? 22:44:21 10° NW 22:45:30 16° NNW 22:45:30 16° NNW visible
30 Aug ? 21:24:03 10° WNW 21:26:18 23° NNW 21:28:32 10° NE visible
30 Aug ? 22:59:04 10° NW 22:59:26 12° NW 22:59:26 12° NW visible
31 Aug ? 21:39:01 10° NW 21:41:06 19° N 21:42:28 14° NE visible
01 Sep ? 20:18:39 10° WNW 20:21:01 26° NNW 20:23:23 10° NE visible
01 Sep ? 21:53:50 10° NW 21:55:56 20° N 21:56:19 19° NNE visible
02 Sep ? 20:33:39 10° WNW 20:35:48 21° N 20:37:57 10° NE visible
02 Sep ? 22:08:27 10° NW 22:10:09 22° N 22:10:09 22° N visible
